Simultaneous Nadir Overpasses (SNOs) Predictions

Prediction of SNOs over PacNW region [( 10.00, 139.50) to ( 22.70, 165.60)] between AQUA and NPP Satellites:

Table of predicted SNOs over PacNW region for the next 30.0 days since TLE Epoch: 3/18/2023
Index Date (AQUA) Time (AQUA) AQUA Lat,Lon Date (NPP) Time (NPP) NPP Lat,Lon Distance(km) Time Diff (sec)
1 03/22/2023 02:42:36 18.92, 163.03 03/22/2023 02:43:38 17.82, 158.10 535.06 62
2 03/24/2023 16:18:02 20.06, 145.07 03/24/2023 16:17:19 20.85, 140.86 447.72 43
3 04/01/2023 15:21:52 22.60, 159.61 04/01/2023 15:25:20 25.67, 154.76 599.03 208
4 04/04/2023 03:41:30 21.73, 147.97 04/04/2023 03:41:46 20.66, 143.12 516.32 16
5 04/06/2023 15:39:59 10.00, 153.14 04/06/2023 15:36:29 9.03, 149.16 449.42 210
6 04/14/2023 16:19:28 22.63, 145.34 04/14/2023 16:22:57 24.42, 140.17 563.59 209
